Weather History for Alexandria, MN

Change the Weather History Date:

Thursday, April 25, 2013

  Actual Average Record
Temperature  
Mean Temperature 34 °F -  
Max Temperature 45 °F 61 °F 89 °F (1962)
Min Temperature 25 °F 37 °F 24 °F (1950)
Degree Days  
Heating Degree Days 30    
Moisture  
Dew Point 26 °F    
Average Humidity 74    
Maximum Humidity 89    
Minimum Humidity 53    
Precipitation  
Precipitation 0.00 in - - ()
Sea Level Pressure  
Sea Level Pressure 30.12 in    
Wind  
Wind Speed 11 mph (WSW)    
Max Wind Speed 17 mph    
Max Gust Speed 24 mph    
Visibility 10 miles    
Events      
Averages and records for this station are not official NWS values.
T = Trace of Precipitation, MM = Missing Value Source: NWS Daily Summary

Daily Weather History Graph

Daily Weather History Graph

Search for Another Location

Airport:

Trip Planner

Search our weather history database for the weather conditions in past years. The results will help you decide how hot, cold, wet, or windy it might be!

Date:

Astronomy

Apr. 25, 2013 Rise Set
Actual Time 6:17 AM CDT 8:21 PM CDT
Civil Twilight 5:45 AM CDT 8:54 PM CDT
Nautical Twilight 5:05 AM CDT 9:34 PM CDT
Astronomical Twilight 4:21 AM CDT 10:18 PM CDT
Moon 8:37 PM CDT (4/25) 6:01 AM CDT (4/25)
Length of Visible Light 15h 08m
Length of Day
14h 04m
Full, 100% of the Moon is Illuminated
Apr 25
Full
Apr 25
Full
May 2
Last Quarter
May 9
New
May 17
First Quarter

Hourly Weather History & Observations

Time (CDT) Temp. Windchill Dew Point Humidity Pressure Visibility Wind Dir Wind Speed Gust Speed Precip Events Conditions
12:02 AM 30.2 °F 19.3 °F 24.8 °F 80% 30.02 in 10.0 mi WNW 15.0 mph - N/A   Overcast
12:53 AM 28.9 °F 18.2 °F 24.1 °F 82% 30.08 in 10.0 mi WNW 13.8 mph - N/A   Overcast
1:15 AM 28.4 °F 18.5 °F 24.8 °F 86% 30.03 in 10.0 mi WNW 11.5 mph - N/A   Mostly Cloudy
1:53 AM 28.9 °F 19.2 °F 24.1 °F 82% 30.09 in 10.0 mi WNW 11.5 mph - N/A   Overcast
2:22 AM 28.4 °F 19.7 °F 24.8 °F 86% 30.05 in 10.0 mi WNW 9.2 mph - N/A   Overcast
2:53 AM 28.9 °F 19.8 °F 24.1 °F 82% 30.11 in 10.0 mi WNW 10.4 mph - N/A   Overcast
3:53 AM 27.0 °F 18.7 °F 24.1 °F 89% 30.11 in 10.0 mi West 8.1 mph - N/A   Overcast
4:06 AM 28.4 °F 20.4 °F 24.8 °F 86% 30.06 in 10.0 mi WNW 8.1 mph - N/A   Overcast
4:53 AM 28.0 °F 20.0 °F 24.1 °F 85% 30.13 in 10.0 mi WNW 8.1 mph - N/A   Overcast
5:53 AM 27.0 °F 18.7 °F 24.1 °F 89% 30.14 in 10.0 mi WNW 8.1 mph - N/A   Overcast
6:53 AM 26.1 °F 17.6 °F 23.0 °F 88% 30.17 in 10.0 mi WNW 8.1 mph - N/A   Overcast
7:53 AM 25.0 °F 20.7 °F 21.9 °F 88% 30.19 in 10.0 mi West 3.5 mph - N/A   Scattered Clouds
8:53 AM 28.0 °F 19.3 °F 23.0 °F 81% 30.21 in 10.0 mi WNW 9.2 mph - N/A   Scattered Clouds
9:01 AM 28.4 °F 19.7 °F 23.0 °F 80% 30.15 in 10.0 mi West 9.2 mph - N/A   Mostly Cloudy
9:23 AM 28.4 °F 22.2 °F 23.0 °F 80% 30.15 in 10.0 mi West 5.8 mph - N/A   Scattered Clouds
9:53 AM 28.9 °F 25.2 °F 24.1 °F 82% 30.21 in 10.0 mi WSW 3.5 mph - N/A   Clear
10:53 AM 30.9 °F 22.2 °F 24.1 °F 76% 30.22 in 10.0 mi SW 10.4 mph - N/A   Clear
11:53 AM 32.0 °F 27.5 °F 24.1 °F 73% 30.20 in 10.0 mi SSW 4.6 mph - N/A   Clear
12:53 PM 34.0 °F 28.0 °F 24.1 °F 67% 30.19 in 10.0 mi South 6.9 mph - N/A   Clear
1:53 PM 37.0 °F 30.4 °F 24.1 °F 59% 30.17 in 10.0 mi South 9.2 mph - N/A   Clear
2:53 PM 39.0 °F 32.8 °F 24.1 °F 55% 30.15 in 10.0 mi SSE 9.2 mph - N/A   Clear
3:53 PM 42.1 °F 35.2 °F 26.1 °F 53% 30.14 in 10.0 mi SSE 12.7 mph - N/A   Clear
4:53 PM 43.0 °F 36.4 °F 28.0 °F 56% 30.12 in 10.0 mi SSE 12.7 mph - N/A   Mostly Cloudy
5:53 PM 44.1 °F 37.7 °F 28.9 °F 55% 30.10 in 10.0 mi SSE 12.7 mph - N/A   Mostly Cloudy
6:53 PM 44.1 °F 38.6 °F 30.0 °F 58% 30.09 in 10.0 mi SSE 10.4 mph - N/A   Scattered Clouds
7:53 PM 44.1 °F 38.6 °F 30.0 °F 58% 30.07 in 10.0 mi SE 10.4 mph - N/A   Partly Cloudy
8:53 PM 43.0 °F 36.8 °F 30.9 °F 62% 30.06 in 10.0 mi ESE 11.5 mph - N/A   Scattered Clouds
9:53 PM 42.1 °F 34.5 °F 30.0 °F 62% 30.06 in 10.0 mi ESE 15.0 mph - N/A   Clear
10:53 PM 41.0 °F 32.5 °F 30.9 °F 67% 30.04 in 10.0 mi SE 17.3 mph 24.2 mph N/A   Clear
11:53 PM 39.9 °F 31.4 °F 30.9 °F 70% 30.04 in 10.0 mi ESE 16.1 mph - N/A   Mostly Cloudy